Location: Be Tobo
(6.6442°N, 10.6239°W)
Time: 01:35:07
(UTC+00:00)

BLOCK-DM UPPERSTAGE - Pass Details

Date: 18 September 2020
Orbit: 659 x 35829 km, 0.9° (Epoch: 20 October)

Event Time Altitude Azimuth Distance (km) Brightness Sun altitude
Rises 19:54:21 0° 262° (W) 5,702 9.5 -19.2°
Reaches altitude 10° 19:59:30 10° 254° (WSW) 3,249 7.7 -20.5°
Maximum altitude 20:04:58 35° 186° (S) 1,135 4.3 -21.8°
Enters shadow 20:05:49 32° 158° (SSE) 1,164 4.2 -22.0°
